Satellite: PO-28
Catalog number: 22829
Epoch time:      08100.46955244
Element set:    0918
Inclination:      098.3588 deg
RA of node:       065.1501 deg
Eccentricity:    0.0010767
Arg of perigee:   073.4324 deg
Mean anomaly:     286.8037 deg
Mean motion:   14.30185320 rev/day
Decay rate:       -1.1e-07 rev/day^2
Epoch rev:           75830
Checksum:              300

Satellite: GO-32
Catalog number: 25397
Epoch time:      08101.75632666
Element set:     571
Inclination:      098.3717 deg
RA of node:       140.2276 deg
Eccentricity:    0.0002165
Arg of perigee:   087.6039 deg
Mean anomaly:     272.5388 deg
Mean motion:   14.23140850 rev/day
Decay rate:      -1.62e-06 rev/day^2
Epoch rev:           50662
Checksum:              301

Satellite: MO-46
Catalog number: 26548
Epoch time:      08100.66568842
Element set:    0069
Inclination:      064.5597 deg
RA of node:       342.3015 deg
Eccentricity:    0.0022227
Arg of perigee:   333.8227 deg
Mean anomaly:     026.1765 deg
Mean motion:   14.83247428 rev/day
Decay rate:        4.9e-07 rev/day^2
Epoch rev:           40765
Checksum:              317

Satellite: NO-44
Catalog number: 26931
Epoch time:      08100.51078768
Element set:    0851
Inclination:      067.0495 deg
RA of node:       101.5739 deg
Eccentricity:    0.0005786
Arg of perigee:   279.0872 deg
Mean anomaly:     080.9578 deg
Mean motion:   14.29518705 rev/day
Decay rate:        8.5e-07 rev/day^2
Epoch rev:           34059
Checksum:              336

Satellite: SO-50
Catalog number: 27607
Epoch time:      08100.90229269
Element set:    0575
Inclination:      064.5576 deg
RA of node:       261.0154 deg
Eccentricity:    0.0083124
Arg of perigee:   292.8878 deg
Mean anomaly:     066.3422 deg
Mean motion:   14.71343807 rev/day
Decay rate:        3.9e-07 rev/day^2
Epoch rev:           28492
Checksum:              315

Satellite: CO-55
Catalog number: 27844
Epoch time:      08101.60920759
Element set:     278
Inclination:      098.7173 deg
RA of node:       110.8105 deg
Eccentricity:    0.0009480
Arg of perigee:   316.1330 deg
Mean anomaly:     043.9094 deg
Mean motion:   14.20571658 rev/day
Decay rate:        8.9e-07 rev/day^2
Epoch rev:           24784
Checksum:              310

Satellite: CO-57
Catalog number: 27848
Epoch time:      08100.54157331
Element set:    0231
Inclination:      098.7180 deg
RA of node:       108.8670 deg
Eccentricity:    0.0009510
Arg of perigee:   322.9595 deg
Mean anomaly:     037.0915 deg
Mean motion:   14.20381891 rev/day
Decay rate:        6.7e-07 rev/day^2
Epoch rev:           24766
Checksum:              309

Satellite: AO-51
Catalog number: 28375
Epoch time:      08100.63477445
Element set:      72
Inclination:      098.0783 deg
RA of node:       129.0417 deg
Eccentricity:    0.0084932
Arg of perigee:   001.3527 deg
Mean anomaly:     358.7880 deg
Mean motion:   14.40602912 rev/day
Decay rate:        1.9e-07 rev/day^2
Epoch rev:           19853
Checksum:              307

Satellite: CO-56
Catalog number: 28941
Epoch time:      08100.93506048
Element set:    0988
Inclination:      098.1019 deg
RA of node:       202.5242 deg
Eccentricity:    0.0177111
Arg of perigee:   288.4847 deg
Mean anomaly:     069.7210 deg
Mean motion:   15.53312320 rev/day
Decay rate:     1.7944e-04 rev/day^2
Epoch rev:           11943
Checksum:              309

Satellite: CP4
Catalog number: 31122
Epoch time:      08101.63632703
Element set:     310
Inclination:      098.0475 deg
RA of node:       169.7203 deg
Eccentricity:    0.0086403
Arg of perigee:   177.7318 deg
Mean anomaly:     182.4282 deg
Mean motion:   14.55110430 rev/day
Decay rate:       5.51e-06 rev/day^2
Epoch rev:            5225
Checksum:              258

Satellite: CP3
Catalog number: 31128
Epoch time:      08100.62794917
Element set:    0304
Inclination:      098.0442 deg
RA of node:       166.9486 deg
Eccentricity:    0.0102832
Arg of perigee:   186.2585 deg
Mean anomaly:     173.7330 deg
Mean motion:   14.51932387 rev/day
Decay rate:       -4.7e-07 rev/day^2
Epoch rev:           05198
Checksum:              309

Satellite: LIBERT
Catalog number: 31129
Epoch time:      08101.63997738
Element set:     881
Inclination:      098.0434 deg
RA of node:       167.9540 deg
Eccentricity:    0.0102588
Arg of perigee:   183.1456 deg
Mean anomaly:     176.9079 deg
Mean motion:   14.52023144 rev/day
Decay rate:       3.38e-06 rev/day^2
Epoch rev:            5211
Checksum:              304

/EX
SB KEPS @ AMSAT  $ORB08101.W
Orbital Elements  08101.WEATHER

HR AMSAT ORBITAL ELEMENTS FOR WEATHER SATELLITES
FROM WA5QGD FORT WORTH,TX April 10, 2008
Send Subscribe/unsubscribe to KEPS at 
http://www.amsat.org/mailman/listinfo/keps
BID: ORB08101.W
TO ALL RADIO AMATEURS BT

Satellite: NOAA-10
Catalog number: 16969
Epoch time:      08100.66770452
Element set:    0075
Inclination:      098.7270 deg
RA of node:       122.7590 deg
Eccentricity:    0.0012792
Arg of perigee:   024.9241 deg
Mean anomaly:     335.2556 deg
Mean motion:   14.27356059 rev/day
Decay rate:        3.9e-07 rev/day^2
Epoch rev:           12166
Checksum:              302

